When you browse on this site, cookies collect data to enhance your experience and personalize the content and advertising you see.
Visit our Privacy Policy to learn more. By continuing to use the site, you agree to this use of cookies and data.

Hourly Weather Gmund

Today, 18 September, Friday

Time Temperature Precipitation Wind Pressure Humidity
00:00 +12°C° 0 mm 2 mps 678 mmHg 97%
01:00 +12°C° 0 mm 1 mps 678 mmHg 97%
02:00 +11°C° 0 mm 1 mps 677 mmHg 97%
03:00 +10°C° 0 mm 2 mps 677 mmHg 97%
04:00 +10°C° 0 mm 2 mps 677 mmHg 96%
05:00 +11°C° 0 mm 1 mps 677 mmHg 95%
06:00 +11°C° 0 mm 1 mps 677 mmHg 95%
07:00 +11°C° 0 mm 1 mps 678 mmHg 97%
08:00 +13°C° 0 mm 1 mps 678 mmHg 91%
09:00 +14°C° 0 mm 1 mps 678 mmHg 85%
10:00 +16°C° 0 mm 2 mps 678 mmHg 79%
11:00 +17°C° 0 mm 2 mps 678 mmHg 74%
12:00 +18°C° 0 mm 2 mps 678 mmHg 69%
13:00 +19°C° 0 mm 3 mps 678 mmHg 64%
14:00 +18°C° 0 mm 3 mps 678 mmHg 65%
15:00 +18°C° 0 mm 3 mps 678 mmHg 66%
16:00 +17°C° 0 mm 3 mps 677 mmHg 67%
17:00 +15°C° 0 mm 2 mps 677 mmHg 74%
18:00 +13°C° 0 mm 2 mps 677 mmHg 80%
19:00 +11°C° 0 mm 1 mps 676 mmHg 86%
20:00 +10°C° 0 mm 1 mps 676 mmHg 87%
21:00 +10°C° 0 mm 1 mps 676 mmHg 88%
22:00 +10°C° 0 mm 1 mps 676 mmHg 89%
23:00 +10°C° 0 mm 1 mps 676 mmHg 89%

Tomorrow, 19 September, Saturday

Time Temperature Precipitation Wind Pressure Humidity
00:00 +9°C° 0 mm 1 mps 676 mmHg 90%
01:00 +9°C° 0 mm 1 mps 676 mmHg 90%
02:00 +9°C° 0 mm 1 mps 676 mmHg 90%
03:00 +9°C° 0 mm 1 mps 675 mmHg 90%
04:00 +9°C° 0 mm 1 mps 675 mmHg 90%
05:00 +10°C° 0 mm 1 mps 675 mmHg 89%
06:00 +10°C° 0 mm 1 mps 675 mmHg 89%
07:00 +11°C° 0 mm 1 mps 675 mmHg 88%
08:00 +14°C° 0 mm 1 mps 676 mmHg 79%
09:00 +16°C° 0 mm 1 mps 676 mmHg 71%
10:00 +20°C° 0 mm 1 mps 677 mmHg 62%
11:00 +21°C° 0 mm 1 mps 676 mmHg 59%
12:00 +22°C° 0 mm 1 mps 676 mmHg 57%
13:00 +23°C° 0 mm 1 mps 676 mmHg 55%
14:00 +21°C° 0 mm 2 mps 676 mmHg 59%
15:00 +20°C° 0 mm 2 mps 675 mmHg 64%
16:00 +20°C° 0 mm 2 mps 675 mmHg 68%
17:00 +18°C° 0 mm 1 mps 674 mmHg 77%
18:00 +15°C° 0 mm 1 mps 674 mmHg 86%
19:00 +12°C° 0 mm 0 mps 673 mmHg 95%
20:00 +11°C° 0 mm 0 mps 673 mmHg 95%
21:00 +12°C° 0 mm 1 mps 674 mmHg 95%
22:00 +12°C° 0 mm 1 mps 674 mmHg 95%
23:00 +12°C° 0 mm 1 mps 673 mmHg 94%

Day after tomorrow, 20 September, Sunday

Time Temperature Precipitation Wind Pressure Humidity
00:00 +11°C° 0 mm 1 mps 673 mmHg 94%
01:00 +11°C° 0 mm 1 mps 673 mmHg 94%
02:00 +11°C° 0 mm 1 mps 673 mmHg 94%
03:00 +10°C° 0 mm 0 mps 672 mmHg 94%
04:00 +10°C° 0 mm 0 mps 672 mmHg 94%
05:00 +10°C° 0 mm 0 mps 673 mmHg 93%
06:00 +11°C° 0 mm 0 mps 673 mmHg 93%
07:00 +11°C° 0 mm 0 mps 673 mmHg 92%
08:00 +13°C° 0 mm 0 mps 673 mmHg 86%
09:00 +16°C° 0 mm 1 mps 674 mmHg 79%
10:00 +19°C° 0 mm 1 mps 674 mmHg 72%
11:00 +20°C° 0.2 mm 1 mps 674 mmHg 70%
12:00 +21°C° 0.2 mm 1 mps 674 mmHg 68%
13:00 +20°C° 0.2 mm 2 mps 674 mmHg 66%
14:00 +20°C° 0.5 mm 2 mps 674 mmHg 71%
15:00 +19°C° 0.5 mm 2 mps 673 mmHg 75%
16:00 +19°C° 0.5 mm 1 mps 673 mmHg 80%
17:00 +18°C° 0.3 mm 1 mps 673 mmHg 85%
18:00 +15°C° 0.3 mm 1 mps 673 mmHg 90%
19:00 +13°C° 0.3 mm 0 mps 673 mmHg 96%
20:00 +12°C° 0 mm 0 mps 673 mmHg 96%
21:00 +12°C° 0 mm 0 mps 673 mmHg 96%
22:00 +12°C° 0 mm 0 mps 673 mmHg 96%
23:00 +11°C° 0.1 mm 0 mps 673 mmHg 96%

21 September, Monday

Time Temperature Precipitation Wind Pressure Humidity
00:00 +11°C° 0.1 mm 0 mps 673 mmHg 97%
01:00 +11°C° 0.1 mm 0 mps 673 mmHg 97%
02:00 +11°C° 0 mm 0 mps 673 mmHg 96%
03:00 +11°C° 0 mm 0 mps 673 mmHg 96%
04:00 +11°C° 0 mm 0 mps 673 mmHg 96%
05:00 +11°C° 0 mm 0 mps 673 mmHg 96%
06:00 +11°C° 0 mm 0 mps 673 mmHg 95%
07:00 +12°C° 0 mm 0 mps 673 mmHg 94%
08:00 +13°C° 0 mm 0 mps 674 mmHg 88%
09:00 +15°C° 0 mm 0 mps 674 mmHg 81%
10:00 +17°C° 0 mm 0 mps 675 mmHg 75%
11:00 +20°C° 0 mm 1 mps 675 mmHg 70%
12:00 +21°C° 0 mm 1 mps 675 mmHg 64%
13:00 +21°C° 0 mm 1 mps 675 mmHg 59%
14:00 +21°C° 0.2 mm 1 mps 674 mmHg 63%
15:00 +20°C° 0.2 mm 1 mps 674 mmHg 67%
16:00 +20°C° 0.2 mm 1 mps 674 mmHg 71%
17:00 +18°C° 0.4 mm 1 mps 674 mmHg 79%
18:00 +14°C° 0.4 mm 0 mps 673 mmHg 86%
19:00 +12°C° 0.4 mm 0 mps 673 mmHg 93%
20:00 +12°C° 0.3 mm 0 mps 673 mmHg 93%
21:00 +12°C° 0.3 mm 0 mps 673 mmHg 93%
22:00 +13°C° 0.3 mm 1 mps 673 mmHg 94%
23:00 +12°C° 0.1 mm 1 mps 673 mmHg 94%

22 September, Tuesday

Time Temperature Precipitation Wind Pressure Humidity
00:00 +12°C° 0.1 mm 1 mps 673 mmHg 94%
01:00 +12°C° 0.1 mm 1 mps 672 mmHg 94%
02:00 +12°C° 0 mm 1 mps 672 mmHg 94%
03:00 +11°C° 0 mm 1 mps 672 mmHg 94%
04:00 +11°C° 0 mm 1 mps 672 mmHg 94%
05:00 +11°C° 0 mm 1 mps 672 mmHg 93%
06:00 +11°C° 0 mm 1 mps 672 mmHg 92%
07:00 +12°C° 0 mm 1 mps 672 mmHg 91%
08:00 +14°C° 0 mm 1 mps 672 mmHg 82%
09:00 +16°C° 0 mm 0 mps 673 mmHg 73%
10:00 +19°C° 0 mm 0 mps 673 mmHg 64%
11:00 +19°C° 0.1 mm 0 mps 673 mmHg 61%
12:00 +22°C° 0.1 mm 1 mps 673 mmHg 58%
13:00 +23°C° 0.1 mm 1 mps 673 mmHg 54%
14:00 +22°C° 0.6 mm 1 mps 672 mmHg 61%
15:00 +21°C° 0.6 mm 1 mps 672 mmHg 68%
16:00 +18°C° 0.6 mm 0 mps 671 mmHg 75%
17:00 +19°C° 0.5 mm 1 mps 671 mmHg 79%
18:00 +16°C° 0.5 mm 1 mps 671 mmHg 83%
19:00 +15°C° 0.5 mm 1 mps 671 mmHg 87%
20:00 +14°C° 0.7 mm 2 mps 671 mmHg 89%
21:00 +13°C° 0.7 mm 2 mps 670 mmHg 91%
22:00 +12°C° 0.7 mm 3 mps 670 mmHg 93%
23:00 +13°C° 0.2 mm 2 mps 670 mmHg 92%

23 September, Wednesday

Time Temperature Precipitation Wind Pressure Humidity
00:00 +12°C° 0.2 mm 2 mps 670 mmHg 92%
01:00 +12°C° 0.2 mm 2 mps 670 mmHg 91%
02:00 +12°C° 0 mm 2 mps 670 mmHg 91%
03:00 +12°C° 0 mm 2 mps 670 mmHg 90%
04:00 +12°C° 0 mm 1 mps 669 mmHg 89%
05:00 +13°C° 0 mm 1 mps 669 mmHg 89%
06:00 +13°C° 0 mm 1 mps 669 mmHg 88%
07:00 +13°C° 0 mm 1 mps 669 mmHg 88%
08:00 +14°C° 0 mm 1 mps 669 mmHg 82%
09:00 +16°C° 0 mm 1 mps 670 mmHg 77%
10:00 +17°C° 0 mm 0 mps 670 mmHg 71%
11:00 +19°C° 0.3 mm 1 mps 670 mmHg 70%
12:00 +19°C° 0.3 mm 1 mps 670 mmHg 70%
13:00 +19°C° 0.3 mm 1 mps 669 mmHg 70%
14:00 +19°C° 0.7 mm 1 mps 669 mmHg 74%
15:00 +18°C° 0.7 mm 1 mps 669 mmHg 79%
16:00 +18°C° 0.7 mm 1 mps 669 mmHg 83%
17:00 +15°C° 1.6 mm 1 mps 669 mmHg 88%
18:00 +14°C° 1.6 mm 2 mps 668 mmHg 93%
19:00 +12°C° 1.6 mm 2 mps 668 mmHg 97%
20:00 +12°C° 1 mm 2 mps 668 mmHg 97%
21:00 +12°C° 1 mm 1 mps 668 mmHg 96%
22:00 +12°C° 1 mm 1 mps 669 mmHg 96%
23:00 +12°C° 0.5 mm 1 mps 669 mmHg 96%
Show more